Date,TemperatureHighF,TemperatureAvgF,TemperatureLowF,DewpointHighF,DewpointAvgF,DewpointLowF,HumidityHigh,HumidityAvg,HumidityLow,PressureMaxIn,PressureMinIn,WindSpeedMaxMPH,WindSpeedAvgMPH,GustSpeedMaxMPH,PrecipitationSumIn
2013-2-1,42.8,32.0,26.7,23.4,21.6,19.3,78,66,45,30.45,30.26,0,0,4,0.05
2013-2-2,35.9,29.7,25.4,20.5,18.2,15.4,69,62,50,30.56,30.41,0,0,3,0.00
2013-2-3,37.3,29.6,25.7,20.9,16.7,13.7,66,58,49,30.39,30.18,0,0,4,0.00
2013-2-4,38.5,29.9,22.5,18.7,15.0,12.6,74,54,39,30.35,30.19,0,0,3,0.00
2013-2-5,49.1,37.6,29.7,21.8,14.4,10.6,51,39,21,30.21,29.79,0,0,10,0.00
2013-2-6,40.1,33.0,25.7,22.2,19.4,13.7,77,58,40,30.23,29.78,6,0,9,0.00
2013-2-7,42.9,32.1,23.0,17.4,8.9,2.7,70,40,19,30.26,29.83,1,0,9,0.00
2013-2-8,42.9,35.8,27.3,29.5,20.1,12.8,88,56,32,29.82,29.55,6,1,18,0.03
2013-2-9,30.4,25.1,21.6,23.0,18.7,13.5,89,77,62,29.91,29.67,1,0,5,0.02
2013-2-10,26.7,21.9,20.0,20.8,18.2,16.8,88,85,73,30.12,29.90,0,0,5,0.15
2013-2-11,25.0,19.9,14.9,16.9,14.0,6.1,88,78,64,30.39,30.11,0,0,4,0.15
2013-2-12,25.3,18.5,12.6,15.8,11.3,5.8,79,73,61,30.57,30.40,1,0,6,0.02
2013-2-13,32.5,26.2,21.3,20.9,18.5,16.1,81,73,60,30.50,30.30,0,0,5,0.07
2013-2-14,27.8,26.6,25.6,21.5,20.4,19.6,78,77,76,30.32,30.28,0,0,0,0.00
2013-2-15,36.5,28.7,23.3,20.1,17.9,15.4,77,64,47,30.62,30.48,0,0,5,0.00
2013-2-16,47.4,34.7,25.7,18.0,14.1,2.3,69,46,21,30.54,30.00,0,0,3,0.00
2013-2-17,37.0,31.2,22.9,22.3,13.3,5.5,69,49,27,30.14,29.80,5,0,10,0.00
2013-2-18,34.9,26.3,19.1,12.2,7.7,-0.4,65,47,23,30.28,30.00,3,0,6,0.00
2013-2-19,46.1,36.2,27.5,13.4,5.8,-3.0,39,28,21,29.99,29.50,1,0,10,0.00
2013-2-20,39.6,33.4,25.8,25.9,19.8,11.4,92,59,38,29.77,29.43,2,0,9,0.00
2013-2-21,29.0,24.6,20.3,23.5,18.7,13.0,91,78,57,30.14,29.76,4,0,7,0.22
2013-2-22,28.4,22.8,18.8,19.1,14.6,11.0,81,71,58,30.25,30.11,0,0,4,0.05
2013-2-23,34.0,23.7,19.4,23.4,16.2,11.8,89,73,55,30.17,29.78,7,0,14,0.00
2013-2-24,26.6,21.8,18.6,15.6,13.8,11.8,83,71,56,30.33,30.07,0,0,6,0.19
2013-2-25,32.5,23.0,15.4,15.0,8.8,5.8,70,55,38,30.43,30.08,1,0,10,0.00
2013-2-26,28.4,23.0,18.9,17.7,14.7,8.8,80,70,58,30.46,30.09,4,0,12,0.00
2013-2-27,29.8,22.1,14.1,9.9,6.8,1.2,68,52,29,30.59,30.46,0,0,6,0.00
2013-2-28,39.9,29.6,19.7,16.1,10.8,5.8,56,46,28,30.59,30.48,0,0,6,0.00